[Date Prev][Date Next][Thread Prev][Thread Next] - [Date Index][Thread Index][Author Index]

2 Line ISS Keps 7-28



ISS
1 25544U 98067A   04210.45495370  .00035041  00000-0  28449-3 0  3171
2 25544  51.6317 115.1751 0006280  56.1237 290.6182 15.70353207324792
----
Via the sarex mailing list at AMSAT.ORG courtesy of AMSAT-NA.
To unsubscribe, send "unsubscribe sarex" to Majordomo@amsat.org



AMSAT Top AMSAT Home